This demonstration page uses our WeatherBlox Daily Observations layout. Learn more.

Left ArrowRight Arrow

44.8408, -93.29828

Hourly Observations for May 14, 2016

Temp ( °F °C ) Dew Point ( °F °C ) Humidity (%) Winds ( mph kmh ) Pressure ( in mb ) Visibility ( mi km ) Precip ( " mm )
12:53 am 00:53 Cloudy 40 4.4 24 -4.4 53 53 NW 18 30 30.09 1019 10 16 0.00 0.00
1:53 am 01:53 Cloudy 39 3.9 24 -4.4 55 55 NW 14 22 30.09 1019 10 16 0.00 0.00
2:53 am 02:53 Cloudy 39 3.9 24 -4.4 55 55 NW 18 30 30.09 1019 10 16 0.00 0.00
3:53 am 03:53 Mostly Clear 36 2.2 22 -5.6 57 57 NNW 15 24 30.10 1019 10 16 0.00 0.00
4:53 am 04:53 Mostly Clear 35 1.7 22 -5.6 59 59 NW 16 26 30.11 1020 10 16 0.00 0.00
5:53 am 05:53 Mostly Sunny 34 1.1 22 -5.6 61 61 NW 16 26 30.12 1020 10 16 0.00 0.00
6:53 am 06:53 Mostly Sunny 34 1.1 22 -5.6 61 61 NW 14 22 30.13 1020 10 16 0.00 0.00
7:53 am 07:53 Mostly Sunny 36 2.2 22 -5.6 57 57 NW 18 30 30.14 1021 10 16 0.00 0.00
8:53 am 08:53 Mostly Cloudy 37 2.8 23 -5 57 57 NW 16 26 30.15 1021 10 16 0.00 0.00
9:53 am 09:53 Cloudy 38 3.3 23 -5 55 55 NNW 12 19 30.16 1021 10 16 0.00 0.00
10:53 am 10:53 Mostly Cloudy 41 5 25 -3.9 53 53 NW 14 22 30.16 1021 10 16 0.00 0.00
11:53 am 11:53 Partly Cloudy 42 5.6 25 -3.9 51 51 NW 14 22 30.15 1021 10 16 0.00 0.00
12:53 pm 12:53 Partly Cloudy 45 7.2 26 -3.3 48 48 NNW 14 22 30.14 1021 10 16 0.00 0.00
1:53 pm 13:53 Mostly Sunny 46 7.8 25 -3.9 44 44 NW 15 24 30.12 1020 10 16 0.00 0.00
2:53 pm 14:53 Partly Cloudy 49 9.4 24 -4.4 38 38 NW 20 31 30.09 1019 10 16 0.00 0.00
3:53 pm 15:53 Partly Cloudy 50 10 23 -5 35 35 NW 17 28 30.07 1018 10 16 0.00 0.00
4:53 pm 16:53 Partly Cloudy 51 10.6 20 -6.7 29 29 NNW 20 31 30.06 1018 9 14 0.00 0.00
5:53 pm 17:53 Partly Cloudy 51 10.6 18 -7.8 27 27 NW 20 31 30.06 1018 10 16 0.00 0.00
6:53 pm 18:53 Partly Cloudy 50 10 17 -8.3 27 27 WNW 21 33 30.05 1018 10 16 0.00 0.00
7:53 pm 19:53 Partly Cloudy 49 9.4 16 -8.9 27 27 NNW 14 22 30.06 1018 10 16 0.00 0.00
8:53 pm 20:53 Mostly Clear 46 7.8 17 -8.3 31 31 NNW 9 15 30.07 1018 10 16 0.00 0.00
9:53 pm 21:53 Mostly Clear 45 7.2 19 -7.2 35 35 N 13 20 30.10 1019 10 16 0.00 0.00
10:53 pm 22:53 Mostly Clear 42 5.6 20 -6.7 41 41 N 7 11 30.13 1020 10 16 0.00 0.00
11:53 pm 23:53 Clear 40 4.4 21 -6.1 47 47 NNW 6 9 30.13 1020 10 16 0.00 0.00

Powered by AerisWeather